User: anonymous   Login
Location: Peebles
(55.6412°N, 3.1714°W)
Time: 23:59:03
(UTC+00:00)
Language:

Iridium 4 Rocket - Orbit

View from above orbital plane
View from above orbital plane
View from above satellite
View from above satellite

Ground track
Ground track

The orbit data is extracted from the following two-line orbital elements,

1 24797U 97020F   21331.70604497  .00000192  00000-0  36594-4 0  9997
2 24797  86.8931 118.4034 0222796 300.0590  68.1103 14.44297047292398
Epoch (UTC): 27 November 2021 16:56:42
Eccentricity: 0.0222796
inclination: 86.8931°
perigee height: 585 km
apogee height: 903 km
right ascension of ascending node: 118.4034°
argument of perigee: 300.0590°
revolutions per day: 14.44297047
mean anomaly at epoch: 68.1103°
orbit number at epoch: 29239

The dashed part of the orbit path shows where the satellite is in the earth's shadow,  

DLR